Location: Courcelles
(49.2596°N, 1.7419°E)
Time: 00:48:06
(UTC+00:00)

Aureole 3 Rocket - Pass Details

Date: 17 November 2025
Orbit: 397 x 1691 km, 82.5° (Epoch: 05 December)

Event Time Altitude Azimuth Distance (km) Brightness Sun altitude
Rises 17:55:47 0° 191° (S) 2,325 6.3 -17.2°
Reaches altitude 10° 17:57:45 10° 192° (SSW) 1,446 5.2 -17.6°
Maximum altitude 18:00:46 79° 281° (W) 420 2.2 -18.0°
Enters shadow 18:02:49 20° 6° (N) 1,044 4.1 -18.4°
